Year,Month,Day,Hour,Minute,Value (Times are PST for temperature in C)
2018,05,22,00,00,14.90
2018,05,22,00,01,15.00
2018,05,22,00,02,15.00
2018,05,22,00,03,15.00
2018,05,22,00,04,15.00
2018,05,22,00,05,15.00
2018,05,22,00,06,15.00
2018,05,22,00,07,15.00
2018,05,22,00,08,15.00
2018,05,22,00,09,15.00
2018,05,22,00,10,15.00
2018,05,22,00,11,15.00
2018,05,22,00,12,15.00
2018,05,22,00,13,15.00
2018,05,22,00,14,15.00
2018,05,22,00,15,14.90
2018,05,22,00,16,14.90
2018,05,22,00,17,14.80
2018,05,22,00,18,14.80
2018,05,22,00,19,14.80
2018,05,22,00,20,14.80
2018,05,22,00,21,14.70
2018,05,22,00,22,14.70
2018,05,22,00,23,14.70
2018,05,22,00,24,14.60
2018,05,22,00,25,14.60
2018,05,22,00,26,14.60
2018,05,22,00,27,14.60
2018,05,22,00,28,14.50
2018,05,22,00,29,14.50
2018,05,22,00,30,14.50
2018,05,22,00,31,14.40
2018,05,22,00,32,14.40
2018,05,22,00,33,14.40
2018,05,22,00,34,14.40
2018,05,22,00,35,14.30
2018,05,22,00,36,14.30
2018,05,22,00,37,14.30
2018,05,22,00,38,14.30
2018,05,22,00,39,14.20
2018,05,22,00,40,14.20
2018,05,22,00,41,14.20
2018,05,22,00,42,14.20
2018,05,22,00,43,14.20
2018,05,22,00,44,14.10
2018,05,22,00,45,14.10
2018,05,22,00,46,14.00
2018,05,22,00,47,14.00
2018,05,22,00,48,13.90
2018,05,22,00,49,13.90
2018,05,22,00,50,13.90
2018,05,22,00,51,13.80
2018,05,22,00,52,13.80
2018,05,22,00,53,13.70
2018,05,22,00,54,13.70
2018,05,22,00,55,13.70
2018,05,22,00,56,13.60
2018,05,22,00,57,13.60
2018,05,22,00,58,13.60
2018,05,22,00,59,13.50
2018,05,22,01,00,13.50
2018,05,22,01,01,13.40
2018,05,22,01,02,13.40
2018,05,22,01,03,13.40
2018,05,22,01,04,13.30
2018,05,22,01,05,13.30
2018,05,22,01,06,13.30
2018,05,22,01,07,13.20
2018,05,22,01,08,13.20
2018,05,22,01,09,13.20
2018,05,22,01,10,13.20
2018,05,22,01,11,13.20
2018,05,22,01,12,13.10
2018,05,22,01,13,13.10
2018,05,22,01,14,13.10
2018,05,22,01,15,13.10
2018,05,22,01,16,13.00
2018,05,22,01,17,13.00
2018,05,22,01,18,13.00
2018,05,22,01,19,12.90
2018,05,22,01,20,12.90
2018,05,22,01,21,12.90
2018,05,22,01,22,12.90
2018,05,22,01,23,12.90
2018,05,22,01,24,12.80
2018,05,22,01,25,12.80
2018,05,22,01,26,12.80
2018,05,22,01,27,12.80
2018,05,22,01,28,12.80
2018,05,22,01,29,12.80
2018,05,22,01,30,12.70
2018,05,22,01,31,12.70
2018,05,22,01,32,12.70
2018,05,22,01,33,12.70
2018,05,22,01,34,12.70
2018,05,22,01,35,12.70
2018,05,22,01,36,12.60
2018,05,22,01,37,12.60
2018,05,22,01,38,12.60
2018,05,22,01,39,12.60
2018,05,22,01,40,12.60
2018,05,22,01,41,12.50
2018,05,22,01,42,12.50
2018,05,22,01,43,12.50
2018,05,22,01,44,12.40
2018,05,22,01,45,12.40
2018,05,22,01,46,12.40
2018,05,22,01,47,12.30
2018,05,22,01,48,12.30
2018,05,22,01,49,12.30
2018,05,22,01,50,12.30
2018,05,22,01,51,12.30
2018,05,22,01,52,12.20
2018,05,22,01,53,12.20
2018,05,22,01,54,12.20
2018,05,22,01,55,12.20
2018,05,22,01,56,12.20
2018,05,22,01,57,12.10
2018,05,22,01,58,12.10
2018,05,22,01,59,12.10
2018,05,22,02,00,12.10
2018,05,22,02,01,12.10
2018,05,22,02,02,12.00
2018,05,22,02,03,12.00
2018,05,22,02,04,12.00
2018,05,22,02,05,11.90
2018,05,22,02,06,11.90
2018,05,22,02,07,11.90
2018,05,22,02,08,11.90
2018,05,22,02,09,11.90
2018,05,22,02,10,11.80
2018,05,22,02,11,11.80
2018,05,22,02,12,11.80
2018,05,22,02,13,11.80
2018,05,22,02,14,11.80
2018,05,22,02,15,11.70
2018,05,22,02,16,11.70
2018,05,22,02,17,11.70
2018,05,22,02,18,11.70
2018,05,22,02,19,11.70
2018,05,22,02,20,11.70
2018,05,22,02,21,11.60
2018,05,22,02,22,11.60
2018,05,22,02,23,11.60
2018,05,22,02,24,11.60
2018,05,22,02,25,11.50
2018,05,22,02,26,11.50
2018,05,22,02,27,11.40
2018,05,22,02,28,11.40
2018,05,22,02,29,11.40
2018,05,22,02,30,11.40
2018,05,22,02,31,11.30
2018,05,22,02,32,11.30
2018,05,22,02,33,11.30
2018,05,22,02,34,11.30
2018,05,22,02,35,11.30
2018,05,22,02,36,11.30
2018,05,22,02,37,11.30
2018,05,22,02,38,11.30
2018,05,22,02,39,11.30
2018,05,22,02,40,11.20
2018,05,22,02,41,11.20
2018,05,22,02,42,11.20
2018,05,22,02,43,11.20
2018,05,22,02,44,11.20
2018,05,22,02,45,11.20
2018,05,22,02,46,11.20
2018,05,22,02,47,11.10
2018,05,22,02,48,11.10
2018,05,22,02,49,11.10
2018,05,22,02,50,11.10
2018,05,22,02,51,11.10
2018,05,22,02,52,11.10
2018,05,22,02,53,11.10
2018,05,22,02,54,11.00
2018,05,22,02,55,11.00
2018,05,22,02,56,11.00
2018,05,22,02,57,11.00
2018,05,22,02,58,10.90
2018,05,22,02,59,10.90
2018,05,22,03,00,10.90
2018,05,22,03,01,10.90
2018,05,22,03,02,10.90
2018,05,22,03,03,10.90
2018,05,22,03,04,10.90
2018,05,22,03,05,10.90
2018,05,22,03,06,10.80
2018,05,22,03,07,10.80
2018,05,22,03,08,10.80
2018,05,22,03,09,10.80
2018,05,22,03,10,10.80
2018,05,22,03,11,10.80
2018,05,22,03,12,10.70
2018,05,22,03,13,10.70
2018,05,22,03,14,10.70
2018,05,22,03,15,10.70
2018,05,22,03,16,10.70
2018,05,22,03,17,10.70
2018,05,22,03,18,10.70
2018,05,22,03,19,10.70
2018,05,22,03,20,10.70
2018,05,22,03,21,10.70
2018,05,22,03,22,10.60
2018,05,22,03,23,10.60
2018,05,22,03,24,10.60
2018,05,22,03,25,10.60
2018,05,22,03,26,10.60
2018,05,22,03,27,10.60
2018,05,22,03,28,10.60
2018,05,22,03,29,10.50
2018,05,22,03,30,10.50
2018,05,22,03,31,10.50
2018,05,22,03,32,10.50
2018,05,22,03,33,10.40
2018,05,22,03,34,10.40
2018,05,22,03,35,10.40
2018,05,22,03,36,10.40
2018,05,22,03,37,10.40
2018,05,22,03,38,10.40
2018,05,22,03,39,10.40
2018,05,22,03,40,10.40
2018,05,22,03,41,10.30
2018,05,22,03,42,10.30
2018,05,22,03,43,10.30
2018,05,22,03,44,10.30
2018,05,22,03,45,10.30
2018,05,22,03,46,10.30
2018,05,22,03,47,10.30
2018,05,22,03,48,10.20
2018,05,22,03,49,10.20
2018,05,22,03,50,10.20
2018,05,22,03,51,10.20
2018,05,22,03,52,10.20
2018,05,22,03,53,10.20
2018,05,22,03,54,10.10
2018,05,22,03,55,10.10
2018,05,22,03,56,10.10
2018,05,22,03,57,10.10
2018,05,22,03,58,10.10
2018,05,22,03,59,10.10
2018,05,22,04,00,10.10
2018,05,22,04,01,10.10
2018,05,22,04,02,10.10
2018,05,22,04,03,10.10
2018,05,22,04,04,10.10
2018,05,22,04,05,10.10
2018,05,22,04,06,10.10
2018,05,22,04,07,10.10
2018,05,22,04,08,10.10
2018,05,22,04,09,10.10
2018,05,22,04,10,10.00
2018,05,22,04,11,10.00
2018,05,22,04,12,10.00
2018,05,22,04,13,10.00
2018,05,22,04,14,10.00
2018,05,22,04,15,9.90
2018,05,22,04,16,9.90
2018,05,22,04,17,9.90
2018,05,22,04,18,9.90
2018,05,22,04,19,9.90
2018,05,22,04,20,9.90
2018,05,22,04,21,9.90
2018,05,22,04,22,9.80
2018,05,22,04,23,9.80
2018,05,22,04,24,9.80
2018,05,22,04,25,9.80
2018,05,22,04,26,9.80
2018,05,22,04,27,9.80
2018,05,22,04,28,9.80
2018,05,22,04,29,9.70
2018,05,22,04,30,9.70
2018,05,22,04,31,9.70
2018,05,22,04,32,9.70
2018,05,22,04,33,9.70
2018,05,22,04,34,9.70
2018,05,22,04,35,9.70
2018,05,22,04,36,9.70
2018,05,22,04,37,9.70
2018,05,22,04,38,9.70
2018,05,22,04,39,9.70
2018,05,22,04,40,9.70
2018,05,22,04,41,9.70
2018,05,22,04,42,9.70
2018,05,22,04,43,9.70
2018,05,22,04,44,9.70
2018,05,22,04,45,9.70
2018,05,22,04,46,9.70
2018,05,22,04,47,9.70
2018,05,22,04,48,9.70
2018,05,22,04,49,9.60
2018,05,22,04,50,9.60
2018,05,22,04,51,9.60
2018,05,22,04,52,9.60
2018,05,22,04,53,9.60
2018,05,22,04,54,9.60
2018,05,22,04,55,9.60
2018,05,22,04,56,9.60
2018,05,22,04,57,9.50
2018,05,22,04,58,9.50
2018,05,22,04,59,9.50
2018,05,22,05,00,9.50
2018,05,22,05,01,9.50
2018,05,22,05,02,9.50
2018,05,22,05,03,9.50
2018,05,22,05,04,9.50
2018,05,22,05,05,9.40
2018,05,22,05,06,9.40
2018,05,22,05,07,9.40
2018,05,22,05,08,9.40
2018,05,22,05,09,9.40
2018,05,22,05,10,9.40
2018,05,22,05,11,9.40
2018,05,22,05,12,9.30
2018,05,22,05,13,9.30
2018,05,22,05,14,9.30
2018,05,22,05,15,9.30
2018,05,22,05,16,9.30
2018,05,22,05,17,9.30
2018,05,22,05,18,9.30
2018,05,22,05,19,9.30
2018,05,22,05,20,9.30
2018,05,22,05,21,9.30
2018,05,22,05,22,9.30
2018,05,22,05,23,9.30
2018,05,22,05,24,9.30
2018,05,22,05,25,9.30
2018,05,22,05,26,9.30
2018,05,22,05,27,9.30
2018,05,22,05,28,9.30
2018,05,22,05,29,9.30
2018,05,22,05,30,9.30
2018,05,22,05,31,9.30
2018,05,22,05,32,9.30
2018,05,22,05,33,9.30
2018,05,22,05,34,9.40
2018,05,22,05,35,9.40
2018,05,22,05,36,9.40
2018,05,22,05,37,9.40
2018,05,22,05,38,9.40
2018,05,22,05,39,9.40
2018,05,22,05,40,9.40
2018,05,22,05,41,9.40
2018,05,22,05,42,9.40
2018,05,22,05,43,9.40
2018,05,22,05,44,9.40
2018,05,22,05,45,9.40
2018,05,22,05,46,9.40
2018,05,22,05,47,9.40
2018,05,22,05,48,9.40
2018,05,22,05,49,9.40
2018,05,22,05,50,9.40
2018,05,22,05,51,9.40
2018,05,22,05,52,9.40
2018,05,22,05,53,9.40
2018,05,22,05,54,9.30
2018,05,22,05,55,9.30
2018,05,22,05,56,9.30
2018,05,22,05,57,9.30
2018,05,22,05,58,9.30
2018,05,22,05,59,9.30
2018,05,22,06,00,9.30
2018,05,22,06,01,9.30
2018,05,22,06,02,9.30
2018,05,22,06,03,9.30
2018,05,22,06,04,9.30
2018,05,22,06,05,9.30
2018,05,22,06,06,9.30
2018,05,22,06,07,9.30
2018,05,22,06,08,9.30
2018,05,22,06,09,9.30
2018,05,22,06,10,9.30
2018,05,22,06,11,9.30
2018,05,22,06,12,9.30
2018,05,22,06,13,9.30
2018,05,22,06,14,9.40
2018,05,22,06,15,9.40
2018,05,22,06,16,9.40
2018,05,22,06,17,9.40
2018,05,22,06,18,9.40
2018,05,22,06,19,9.40
2018,05,22,06,20,9.40
2018,05,22,06,21,9.40
2018,05,22,06,22,9.50
2018,05,22,06,23,9.50
2018,05,22,06,24,9.50
2018,05,22,06,25,9.50
2018,05,22,06,26,9.60
2018,05,22,06,27,9.60
2018,05,22,06,28,9.60
2018,05,22,06,29,9.60
2018,05,22,06,30,9.60
2018,05,22,06,31,9.60
2018,05,22,06,32,9.60
2018,05,22,06,33,9.60
2018,05,22,06,34,9.70
2018,05,22,06,35,9.70
2018,05,22,06,36,9.70
2018,05,22,06,37,9.70
2018,05,22,06,38,9.70
2018,05,22,06,39,9.70
2018,05,22,06,40,9.80
2018,05,22,06,41,9.80
2018,05,22,06,42,9.80
2018,05,22,06,43,9.90
2018,05,22,06,44,9.90
2018,05,22,06,45,10.00
2018,05,22,06,46,10.00
2018,05,22,06,47,10.10
2018,05,22,06,48,10.10
2018,05,22,06,49,10.10
2018,05,22,06,50,10.20
2018,05,22,06,51,10.20
2018,05,22,06,52,10.20
2018,05,22,06,53,10.20
2018,05,22,06,54,10.20
2018,05,22,06,55,10.30
2018,05,22,06,56,10.30
2018,05,22,06,57,10.30
2018,05,22,06,58,10.30
2018,05,22,06,59,10.30
2018,05,22,07,00,10.40
2018,05,22,07,01,10.40
2018,05,22,07,02,10.40
2018,05,22,07,03,10.40
2018,05,22,07,04,10.40
2018,05,22,07,05,10.50
2018,05,22,07,06,10.50
2018,05,22,07,07,10.50
2018,05,22,07,08,10.60
2018,05,22,07,09,10.60
2018,05,22,07,10,10.60
2018,05,22,07,11,10.70
2018,05,22,07,12,10.70
2018,05,22,07,13,10.80
2018,05,22,07,14,10.80
2018,05,22,07,15,10.80
2018,05,22,07,16,10.90
2018,05,22,07,17,10.90
2018,05,22,07,18,10.90
2018,05,22,07,19,11.00
2018,05,22,07,20,11.00
2018,05,22,07,21,11.10
2018,05,22,07,22,11.10
2018,05,22,07,23,11.10
2018,05,22,07,24,11.20
2018,05,22,07,25,11.20
2018,05,22,07,26,11.20
2018,05,22,07,27,11.30
2018,05,22,07,28,11.30
2018,05,22,07,29,11.30
2018,05,22,07,30,11.30
2018,05,22,07,31,11.40
2018,05,22,07,32,11.40
2018,05,22,07,33,11.40
2018,05,22,07,34,11.50
2018,05,22,07,35,11.50
2018,05,22,07,36,11.50
2018,05,22,07,37,11.60
2018,05,22,07,38,11.60
2018,05,22,07,39,11.60
2018,05,22,07,40,11.60
2018,05,22,07,41,11.70
2018,05,22,07,42,11.70
2018,05,22,07,43,11.70
2018,05,22,07,44,11.80
2018,05,22,07,45,11.80
2018,05,22,07,46,11.90
2018,05,22,07,47,11.90
2018,05,22,07,48,11.90
2018,05,22,07,49,12.00
2018,05,22,07,50,12.00
2018,05,22,07,51,12.10
2018,05,22,07,52,12.20
2018,05,22,07,53,12.30
2018,05,22,07,54,12.30
2018,05,22,07,55,12.40
2018,05,22,07,56,12.50
2018,05,22,07,57,12.60
2018,05,22,07,58,12.60
2018,05,22,07,59,12.70
2018,05,22,08,00,12.80
2018,05,22,08,01,12.90
2018,05,22,08,02,12.90
2018,05,22,08,03,13.00
2018,05,22,08,04,13.10
2018,05,22,08,05,13.10
2018,05,22,08,06,13.20
2018,05,22,08,07,13.30
2018,05,22,08,08,13.30
2018,05,22,08,09,13.30
2018,05,22,08,10,13.30
2018,05,22,08,11,13.30
2018,05,22,08,12,13.30
2018,05,22,08,13,13.30
2018,05,22,08,14,13.30
2018,05,22,08,15,13.30
2018,05,22,08,16,13.30
2018,05,22,08,17,13.30
2018,05,22,08,18,13.30
2018,05,22,08,19,13.30
2018,05,22,08,20,13.30
2018,05,22,08,21,13.40
2018,05,22,08,22,13.40
2018,05,22,08,23,13.50
2018,05,22,08,24,13.50
2018,05,22,08,25,13.60
2018,05,22,08,26,13.70
2018,05,22,08,27,13.70
2018,05,22,08,28,13.70
2018,05,22,08,29,13.70
2018,05,22,08,30,13.80
2018,05,22,08,31,13.80
2018,05,22,08,32,13.80
2018,05,22,08,33,13.80
2018,05,22,08,34,13.80
2018,05,22,08,35,13.90
2018,05,22,08,36,13.90
2018,05,22,08,37,14.00
2018,05,22,08,38,14.00
2018,05,22,08,39,14.10
2018,05,22,08,40,14.20
2018,05,22,08,41,14.30
2018,05,22,08,42,14.40
2018,05,22,08,43,14.50
2018,05,22,08,44,14.50
2018,05,22,08,45,14.60
2018,05,22,08,46,14.60
2018,05,22,08,47,14.70
2018,05,22,08,48,14.80
2018,05,22,08,49,14.90
2018,05,22,08,50,15.00
2018,05,22,08,51,15.00
2018,05,22,08,52,15.10
2018,05,22,08,53,15.10
2018,05,22,08,54,15.10
2018,05,22,08,55,15.10
2018,05,22,08,56,15.20
2018,05,22,08,57,15.20
2018,05,22,08,58,15.20
2018,05,22,08,59,15.30
2018,05,22,09,00,15.30
2018,05,22,09,01,15.20
2018,05,22,09,02,15.20
2018,05,22,09,03,15.30
2018,05,22,09,04,15.30
2018,05,22,09,05,15.40
2018,05,22,09,06,15.40
2018,05,22,09,07,15.50
2018,05,22,09,08,15.60
2018,05,22,09,09,15.70
2018,05,22,09,10,15.70
2018,05,22,09,11,15.80
2018,05,22,09,12,15.80
2018,05,22,09,13,15.90
2018,05,22,09,14,16.00
2018,05,22,09,15,16.10
2018,05,22,09,16,16.20
2018,05,22,09,17,16.30
2018,05,22,09,18,16.40
2018,05,22,09,19,16.50
2018,05,22,09,20,16.50
2018,05,22,09,21,16.60
2018,05,22,09,22,16.60
2018,05,22,09,23,16.70
2018,05,22,09,24,16.70
2018,05,22,09,25,16.60
2018,05,22,09,26,16.60
2018,05,22,09,27,16.60
2018,05,22,09,28,16.60
2018,05,22,09,29,16.60
2018,05,22,09,30,16.60
2018,05,22,09,31,16.60
2018,05,22,09,32,16.60
2018,05,22,09,33,16.60
2018,05,22,09,34,16.50
2018,05,22,09,35,16.50
2018,05,22,09,36,16.50
2018,05,22,09,37,16.40
2018,05,22,09,38,16.40
2018,05,22,09,39,16.30
2018,05,22,09,40,16.30
2018,05,22,09,41,16.30
2018,05,22,09,42,16.30
2018,05,22,09,43,16.40
2018,05,22,09,44,16.40
2018,05,22,09,45,16.50
2018,05,22,09,46,16.60
2018,05,22,09,47,16.70
2018,05,22,09,48,16.80
2018,05,22,09,49,16.80
2018,05,22,09,50,16.90
2018,05,22,09,51,16.90
2018,05,22,09,52,17.00
2018,05,22,09,53,17.00
2018,05,22,09,54,17.10
2018,05,22,09,55,17.20
2018,05,22,09,56,17.20
2018,05,22,09,57,17.30
2018,05,22,09,58,17.40
2018,05,22,09,59,17.40
2018,05,22,10,00,17.40
2018,05,22,10,01,17.30
2018,05,22,10,02,17.30
2018,05,22,10,03,17.30
2018,05,22,10,04,17.40
2018,05,22,10,05,17.40
2018,05,22,10,06,17.30
2018,05,22,10,07,17.30
2018,05,22,10,08,17.30
2018,05,22,10,09,17.20
2018,05,22,10,10,17.20
2018,05,22,10,11,17.20
2018,05,22,10,12,17.20
2018,05,22,10,13,17.20
2018,05,22,10,14,17.20
2018,05,22,10,15,17.30
2018,05,22,10,16,17.30
2018,05,22,10,17,17.40
2018,05,22,10,18,17.50
2018,05,22,10,19,17.60
2018,05,22,10,20,17.60
2018,05,22,10,21,17.60
2018,05,22,10,22,17.70
2018,05,22,10,23,17.80
2018,05,22,10,24,17.80
2018,05,22,10,25,17.90
2018,05,22,10,26,18.00
2018,05,22,10,27,18.10
2018,05,22,10,28,18.10
2018,05,22,10,29,18.20
2018,05,22,10,30,18.30
2018,05,22,10,31,18.30
2018,05,22,10,32,18.30
2018,05,22,10,33,18.30
2018,05,22,10,34,18.20
2018,05,22,10,35,18.20
2018,05,22,10,36,18.20
2018,05,22,10,37,18.20
2018,05,22,10,38,18.20
2018,05,22,10,39,18.20
2018,05,22,10,40,18.20
2018,05,22,10,41,18.10
2018,05,22,10,42,18.10
2018,05,22,10,43,18.00
2018,05,22,10,44,18.00
2018,05,22,10,45,18.00
2018,05,22,10,46,17.90
2018,05,22,10,47,17.80
2018,05,22,10,48,17.80
2018,05,22,10,49,17.70
2018,05,22,10,50,17.60
2018,05,22,10,51,17.60
2018,05,22,10,52,17.60
2018,05,22,10,53,17.60
2018,05,22,10,54,17.60
2018,05,22,10,55,17.60
2018,05,22,10,56,17.60
2018,05,22,10,57,17.70
2018,05,22,10,58,17.80
2018,05,22,10,59,17.80
2018,05,22,11,00,17.90
2018,05,22,11,01,18.00
2018,05,22,11,02,18.00
2018,05,22,11,03,18.10
2018,05,22,11,04,18.10
2018,05,22,11,05,18.20
2018,05,22,11,06,18.20
2018,05,22,11,07,18.30
2018,05,22,11,08,18.30
2018,05,22,11,09,18.40
2018,05,22,11,10,18.30
2018,05,22,11,11,18.30
2018,05,22,11,12,18.40
2018,05,22,11,13,18.40
2018,05,22,11,14,18.50
2018,05,22,11,15,18.60
2018,05,22,11,16,18.60
2018,05,22,11,17,18.70
2018,05,22,11,18,18.80
2018,05,22,11,19,18.80
2018,05,22,11,20,18.80
2018,05,22,11,21,18.90
2018,05,22,11,22,18.90
2018,05,22,11,23,18.90
2018,05,22,11,24,18.90
2018,05,22,11,25,18.90
2018,05,22,11,26,18.90
2018,05,22,11,27,18.90
2018,05,22,11,28,18.90
2018,05,22,11,29,19.00
2018,05,22,11,30,19.00
2018,05,22,11,31,19.10
2018,05,22,11,32,19.10
2018,05,22,11,33,19.10
2018,05,22,11,34,19.20
2018,05,22,11,35,19.20
2018,05,22,11,36,19.20
2018,05,22,11,37,19.20
2018,05,22,11,38,19.20
2018,05,22,11,39,19.20
2018,05,22,11,40,19.20
2018,05,22,11,41,19.20
2018,05,22,11,42,19.10
2018,05,22,11,43,19.00
2018,05,22,11,44,18.90
2018,05,22,11,45,18.80
2018,05,22,11,46,18.80
2018,05,22,11,47,18.80
2018,05,22,11,48,18.80
2018,05,22,11,49,18.80
2018,05,22,11,50,18.80
2018,05,22,11,51,18.80
2018,05,22,11,52,18.90
2018,05,22,11,53,19.00
2018,05,22,11,54,19.00
2018,05,22,11,55,19.10
2018,05,22,11,56,19.20
2018,05,22,11,57,19.30
2018,05,22,11,58,19.30
2018,05,22,11,59,19.30
2018,05,22,12,00,19.20
2018,05,22,12,01,19.10
2018,05,22,12,02,19.10
2018,05,22,12,03,19.10
2018,05,22,12,04,19.10
2018,05,22,12,05,19.20
2018,05,22,12,06,19.20
2018,05,22,12,07,19.20
2018,05,22,12,08,19.20
2018,05,22,12,09,19.20
2018,05,22,12,10,19.20
2018,05,22,12,11,19.30
2018,05,22,12,12,19.30
2018,05,22,12,13,19.30
2018,05,22,12,14,19.30
2018,05,22,12,15,19.30
2018,05,22,12,16,19.40
2018,05,22,12,17,19.40
2018,05,22,12,18,19.40
2018,05,22,12,19,19.50
2018,05,22,12,20,19.60
2018,05,22,12,21,19.60
2018,05,22,12,22,19.60
2018,05,22,12,23,19.60
2018,05,22,12,24,19.70
2018,05,22,12,25,19.70
2018,05,22,12,26,19.70
2018,05,22,12,27,19.70
2018,05,22,12,28,19.70
2018,05,22,12,29,19.60
2018,05,22,12,30,19.60
2018,05,22,12,31,19.60
2018,05,22,12,32,19.60
2018,05,22,12,33,19.50
2018,05,22,12,34,19.50
2018,05,22,12,35,19.40
2018,05,22,12,36,19.40
2018,05,22,12,37,19.30
2018,05,22,12,38,19.30
2018,05,22,12,39,19.30
2018,05,22,12,40,19.30
2018,05,22,12,41,19.30
2018,05,22,12,42,19.40
2018,05,22,12,43,19.50
2018,05,22,12,44,19.50
2018,05,22,12,45,19.60
2018,05,22,12,46,19.60
2018,05,22,12,47,19.60
2018,05,22,12,48,19.60
2018,05,22,12,49,19.70
2018,05,22,12,50,19.70
2018,05,22,12,51,19.70
2018,05,22,12,52,19.80
2018,05,22,12,53,19.80
2018,05,22,12,54,19.90
2018,05,22,12,55,19.90
2018,05,22,12,56,19.90
2018,05,22,12,57,19.80
2018,05,22,12,58,19.70
2018,05,22,12,59,19.60
2018,05,22,13,00,19.50
2018,05,22,13,01,19.40
2018,05,22,13,02,19.40
2018,05,22,13,03,19.30
2018,05,22,13,04,19.30
2018,05,22,13,05,19.30
2018,05,22,13,06,19.30
2018,05,22,13,07,19.20
2018,05,22,13,08,19.20
2018,05,22,13,09,19.20
2018,05,22,13,10,19.10
2018,05,22,13,11,19.10
2018,05,22,13,12,19.10
2018,05,22,13,13,19.10
2018,05,22,13,14,19.10
2018,05,22,13,15,19.10
2018,05,22,13,16,19.20
2018,05,22,13,17,19.30
2018,05,22,13,18,19.40
2018,05,22,13,19,19.50
2018,05,22,13,20,19.50
2018,05,22,13,21,19.50
2018,05,22,13,22,19.40
2018,05,22,13,23,19.40
2018,05,22,13,24,19.30
2018,05,22,13,25,19.30
2018,05,22,13,26,19.20
2018,05,22,13,27,19.20
2018,05,22,13,28,19.20
2018,05,22,13,29,19.30
2018,05,22,13,30,19.40
2018,05,22,13,31,19.40
2018,05,22,13,32,19.50
2018,05,22,13,33,19.70
2018,05,22,13,34,19.80
2018,05,22,13,35,19.90
2018,05,22,13,36,19.90
2018,05,22,13,37,19.90
2018,05,22,13,38,19.90
2018,05,22,13,39,19.90
2018,05,22,13,40,19.90
2018,05,22,13,41,19.80
2018,05,22,13,42,19.70
2018,05,22,13,43,19.80
2018,05,22,13,44,19.80
2018,05,22,13,45,19.90
2018,05,22,13,46,19.90
2018,05,22,13,47,20.00
2018,05,22,13,48,20.10
2018,05,22,13,49,20.10
2018,05,22,13,50,20.00
2018,05,22,13,51,19.90
2018,05,22,13,52,19.80
2018,05,22,13,53,19.80
2018,05,22,13,54,19.80
2018,05,22,13,55,19.80
2018,05,22,13,56,19.90
2018,05,22,13,57,19.90
2018,05,22,13,58,19.90
2018,05,22,13,59,20.00
2018,05,22,14,00,20.10
2018,05,22,14,01,20.20
2018,05,22,14,02,20.20
2018,05,22,14,03,20.20
2018,05,22,14,04,20.20
2018,05,22,14,05,20.20
2018,05,22,14,06,20.20
2018,05,22,14,07,20.20
2018,05,22,14,08,20.20
2018,05,22,14,09,20.20
2018,05,22,14,10,20.10
2018,05,22,14,11,20.10
2018,05,22,14,12,20.20
2018,05,22,14,13,20.30
2018,05,22,14,14,20.30
2018,05,22,14,15,20.40
2018,05,22,14,16,20.40
2018,05,22,14,17,20.40
2018,05,22,14,18,20.50
2018,05,22,14,19,20.60
2018,05,22,14,20,20.80
2018,05,22,14,21,20.80
2018,05,22,14,22,20.80
2018,05,22,14,23,20.90
2018,05,22,14,24,21.00
2018,05,22,14,25,21.10
2018,05,22,14,26,21.10
2018,05,22,14,27,21.10
2018,05,22,14,28,21.10
2018,05,22,14,29,21.00
2018,05,22,14,30,21.00
2018,05,22,14,31,20.90
2018,05,22,14,32,20.80
2018,05,22,14,33,20.80
2018,05,22,14,34,20.80
2018,05,22,14,35,20.80
2018,05,22,14,36,20.70
2018,05,22,14,37,20.70
2018,05,22,14,38,20.70
2018,05,22,14,39,20.70
2018,05,22,14,40,20.80
2018,05,22,14,41,20.80
2018,05,22,14,42,20.90
2018,05,22,14,43,21.00
2018,05,22,14,44,21.10
2018,05,22,14,45,21.20
2018,05,22,14,46,21.30
2018,05,22,14,47,21.30
2018,05,22,14,48,21.30
2018,05,22,14,49,21.40
2018,05,22,14,50,21.40
2018,05,22,14,51,21.30
2018,05,22,14,52,21.20
2018,05,22,14,53,21.20
2018,05,22,14,54,21.20
2018,05,22,14,55,21.30
2018,05,22,14,56,21.30
2018,05,22,14,57,21.30
2018,05,22,14,58,21.30
2018,05,22,14,59,21.30
2018,05,22,15,00,21.30
2018,05,22,15,01,21.40
2018,05,22,15,02,21.50
2018,05,22,15,03,21.60
2018,05,22,15,04,21.70
2018,05,22,15,05,21.70
2018,05,22,15,06,21.80
2018,05,22,15,07,21.70
2018,05,22,15,08,21.60
2018,05,22,15,09,21.50
2018,05,22,15,10,21.40
2018,05,22,15,11,21.40
2018,05,22,15,12,21.40
2018,05,22,15,13,21.40
2018,05,22,15,14,21.40
2018,05,22,15,15,21.40
2018,05,22,15,16,21.50
2018,05,22,15,17,21.50
2018,05,22,15,18,21.60
2018,05,22,15,19,21.70
2018,05,22,15,20,21.80
2018,05,22,15,21,21.80
2018,05,22,15,22,21.90
2018,05,22,15,23,21.90
2018,05,22,15,24,21.80
2018,05,22,15,25,21.80
2018,05,22,15,26,21.80
2018,05,22,15,27,21.80
2018,05,22,15,28,21.90
2018,05,22,15,29,21.90
2018,05,22,15,30,22.00
2018,05,22,15,31,22.10
2018,05,22,15,32,22.10
2018,05,22,15,33,22.10
2018,05,22,15,34,22.10
2018,05,22,15,35,22.10
2018,05,22,15,36,22.10
2018,05,22,15,37,22.10
2018,05,22,15,38,22.10
2018,05,22,15,39,22.10
2018,05,22,15,40,22.10
2018,05,22,15,41,22.10
2018,05,22,15,42,22.10
2018,05,22,15,43,22.20
2018,05,22,15,44,22.20
2018,05,22,15,45,22.20
2018,05,22,15,46,22.20
2018,05,22,15,47,22.20
2018,05,22,15,48,22.30
2018,05,22,15,49,22.30
2018,05,22,15,50,22.20
2018,05,22,15,51,22.20
2018,05,22,15,52,22.20
2018,05,22,15,53,22.20
2018,05,22,15,54,22.20
2018,05,22,15,55,22.20
2018,05,22,15,56,22.30
2018,05,22,15,57,22.30
2018,05,22,15,58,22.30
2018,05,22,15,59,22.40
2018,05,22,16,00,22.40
2018,05,22,16,01,22.40
2018,05,22,16,02,22.40
2018,05,22,16,03,22.40
2018,05,22,16,04,22.40
2018,05,22,16,05,22.40
2018,05,22,16,06,22.40
2018,05,22,16,07,22.30
2018,05,22,16,08,22.40
2018,05,22,16,09,22.40
2018,05,22,16,10,22.40
2018,05,22,16,11,22.40
2018,05,22,16,12,22.40
2018,05,22,16,13,22.30
2018,05,22,16,14,22.30
2018,05,22,16,15,22.30
2018,05,22,16,16,22.30
2018,05,22,16,17,22.20
2018,05,22,16,18,22.10
2018,05,22,16,19,22.10
2018,05,22,16,20,22.10
2018,05,22,16,21,22.10
2018,05,22,16,22,22.10
2018,05,22,16,23,22.10
2018,05,22,16,24,22.20
2018,05,22,16,25,22.30
2018,05,22,16,26,22.30
2018,05,22,16,27,22.40
2018,05,22,16,28,22.50
2018,05,22,16,29,22.60
2018,05,22,16,30,22.60
2018,05,22,16,31,22.60
2018,05,22,16,32,22.70
2018,05,22,16,33,22.70
2018,05,22,16,34,22.80
2018,05,22,16,35,22.80
2018,05,22,16,36,22.90
2018,05,22,16,37,23.00
2018,05,22,16,38,23.10
2018,05,22,16,39,23.10
2018,05,22,16,40,23.10
2018,05,22,16,41,23.20
2018,05,22,16,42,23.30
2018,05,22,16,43,23.30
2018,05,22,16,44,23.30
2018,05,22,16,45,23.30
2018,05,22,16,46,23.30
2018,05,22,16,47,23.40
2018,05,22,16,48,23.40
2018,05,22,16,49,23.40
2018,05,22,16,50,23.50
2018,05,22,16,51,23.60
2018,05,22,16,52,23.70
2018,05,22,16,53,23.80
2018,05,22,16,54,23.90
2018,05,22,16,55,23.90
2018,05,22,16,56,24.00
2018,05,22,16,57,24.10
2018,05,22,16,58,24.20
2018,05,22,16,59,24.20
2018,05,22,17,00,24.30
2018,05,22,17,01,24.40
2018,05,22,17,02,24.40
2018,05,22,17,03,24.40
2018,05,22,17,04,24.30
2018,05,22,17,05,24.30
2018,05,22,17,06,24.20
2018,05,22,17,07,24.20
2018,05,22,17,08,24.20
2018,05,22,17,09,24.20
2018,05,22,17,10,24.20
2018,05,22,17,11,24.10
2018,05,22,17,12,24.10
2018,05,22,17,13,24.20
2018,05,22,17,14,24.20
2018,05,22,17,15,24.20
2018,05,22,17,16,24.10
2018,05,22,17,17,24.10
2018,05,22,17,18,24.10
2018,05,22,17,19,24.20
2018,05,22,17,20,24.20
2018,05,22,17,21,24.20
2018,05,22,17,22,24.20
2018,05,22,17,23,24.20
2018,05,22,17,24,24.30
2018,05,22,17,25,24.30